[Date Prev][Date Next][Thread Prev][Thread Next] - [Date Index][Thread Index][Author Index]
2 Line ISS Keps 7-6
- Subject: [sarex] 2 Line ISS Keps 7-6
- From: "Dave Larsen PhD" <doc@xxxxxxxxxxx>
- Date: Fri, 6 Jul 2001 02:53:00 -0700
ISS
1 25544U 98067A 01187.20708333 .00035964 00000-0 37859-3 0 1751
2 25544 51.5723 352.4472 0016208 248.3331 103.5028 15.63766867150047
----
Via the sarex mailing list at AMSAT.ORG courtesy of AMSAT-NA.
To unsubscribe, send "unsubscribe sarex" to Majordomo@amsat.org
AMSAT Home